QPF
0.11 0.09 0.05 0.05 0.07 0.13 0.20 0.19 0.21 0.18 0.14 0.11 0.11 0.09 0.10 0.11 0.11 0.06 0.07 0.06 0.07 0.11 0.12 0.17 0.24 0.25 0.24 0.16 0.11 0.08 0.08 0.06 0.05 0.05 0.06 0.06 0.05 0.05 0.04 0.03 0.03 0.02 0.02
0.10 0.10 0.06 0.08 0.11 0.20 0.27 0.26 0.23 0.20 0.16 0.16 0.14 0.11 0.10 0.12 0.11 0.07 0.06 0.06 0.08 0.11 0.14 0.16 0.19 0.15 0.11 0.10 0.08 0.07 0.06 0.06 0.06 0.05 0.06 0.06 0.04 0.05 0.04 0.04 0.05 0.04 0.03
0.12 0.13 0.10 0.11 0.12 0.13 0.16 0.19 0.22 0.22 0.24 0.25 0.21 0.14 0.12 0.14 0.18 0.10 0.08 0.07 0.08 0.14 0.16 0.16 0.16 0.12 0.09 0.08 0.07 0.06 0.05 0.06 0.08 0.07 0.10 0.08 0.05 0.04 0.04 0.05 0.05 0.04 0.04
0.07 0.13 0.14 0.14 0.12 0.11 0.13 0.14 0.14 0.18 0.21 0.22 0.22 0.17 0.14 0.14 0.17 0.13 0.10 0.08 0.10 0.14 0.16 0.16 0.16 0.12 0.09 0.08 0.07 0.07 0.06 0.07 0.07 0.10 0.11 0.07 0.05 0.05 0.04 0.04 0.04 0.04 0.03
0.05 0.09 0.12 0.15 0.14 0.14 0.14 0.12 0.10 0.12 0.13 0.14 0.18 0.18 0.14 0.14 0.16 0.14 0.13 0.11 0.11 0.13 0.12 0.14 0.12 0.12 0.09 0.08 0.08 0.08 0.07 0.07 0.07 0.10 0.08 0.07 0.06 0.05 0.04 0.05 0.04 0.03 0.03
0.05 0.08 0.10 0.12 0.10 0.11 0.12 0.11 0.12 0.16 0.17 0.15 0.20 0.17 0.13 0.12 0.15 0.15 0.16 0.14 0.12 0.14 0.14 0.14 0.11 0.11 0.08 0.07 0.08 0.07 0.07 0.07 0.08 0.09 0.08 0.08 0.06 0.06 0.05 0.05 0.04 0.03 0.03
0.09 0.11 0.11 0.09 0.09 0.09 0.10 0.11 0.17 0.18 0.17 0.17 0.20 0.17 0.11 0.11 0.14 0.16 0.18 0.16 0.14 0.14 0.14 0.12 0.10 0.10 0.07 0.07 0.08 0.07 0.07 0.06 0.07 0.06 0.07 0.07 0.06 0.05 0.06 0.04 0.03 0.03 0.03
0.12 0.15 0.12 0.08 0.07 0.07 0.08 0.10 0.13 0.12 0.11 0.19 0.20 0.17 0.11 0.10 0.12 0.12 0.14 0.14 0.13 0.13 0.12 0.11 0.09 0.10 0.09 0.08 0.08 0.07 0.06 0.07 0.06 0.03 0.05 0.06 0.07 0.07 0.05 0.04 0.03 0.02 0.03
0.09 0.10 0.10 0.09 0.06 0.06 0.08 0.11 0.12 0.11 0.13 0.23 0.20 0.14 0.10 0.10 0.11 0.11 0.11 0.12 0.11 0.11 0.11 0.12 0.11 0.10 0.09 0.08 0.07 0.06 0.08 0.09 0.04 0.04 0.05 0.06 0.08 0.07 0.05 0.04 0.03 0.03 0.03
0.04 0.04 0.04 0.05 0.04 0.04 0.09 0.14 0.14 0.14 0.21 0.27 0.18 0.14 0.12 0.14 0.14 0.11 0.09 0.12 0.13 0.12 0.12 0.13 0.13 0.10 0.09 0.09 0.09 0.07 0.08 0.07 0.05 0.06 0.08 0.09 0.09 0.07 0.05 0.04 0.03 0.03 0.04
0.02 0.02 0.03 0.03 0.03 0.03 0.09 0.18 0.18 0.21 0.27 0.28 0.22 0.19 0.18 0.22 0.20 0.14 0.12 0.15 0.15 0.16 0.16 0.17 0.20 0.15 0.11 0.14 0.15 0.12 0.10 0.07 0.06 0.08 0.10 0.10 0.08 0.06 0.05 0.04 0.04 0.03 0.03
0.02 0.01 0.02 0.03 0.05 0.05 0.06 0.11 0.21 0.22 0.24 0.27 0.26 0.21 0.19 0.19 0.23 0.22 0.23 0.23 0.23 0.23 0.27 0.34 0.35 0.23 0.14 0.20 0.24 0.19 0.10 0.09 0.11 0.12 0.14 0.12 0.09 0.07 0.05 0.04 0.03 0.02 0.02
0.01 0.01 0.01 0.04 0.10 0.06 0.07 0.07 0.11 0.18 0.22 0.26 0.24 0.19 0.15 0.12 0.13 0.18 0.22 0.26 0.26 0.24 0.28 0.33 0.33 0.23 0.16 0.19 0.22 0.17 0.12 0.12 0.13 0.17 0.20 0.15 0.09 0.06 0.05 0.05 0.03 0.02 0.02
0.01 0.01 0.01 0.04 0.07 0.06 0.05 0.06 0.09 0.14 0.17 0.24 0.24 0.15 0.11 0.09 0.10 0.12 0.14 0.16 0.18 0.19 0.18 0.16 0.15 0.14 0.13 0.09 0.12 0.16 0.15 0.16 0.18 0.24 0.23 0.13 0.08 0.06 0.05 0.05 0.03 0.03 0.03
0.01 0.01 0.02 0.04 0.03 0.04 0.05 0.08 0.09 0.12 0.14 0.20 0.24 0.18 0.11 0.09 0.09 0.11 0.11 0.12 0.13 0.16 0.16 0.14 0.12 0.12 0.12 0.11 0.12 0.15 0.18 0.20 0.23 0.24 0.20 0.14 0.09 0.07 0.05 0.04 0.03 0.03 0.03
0.01 0.03 0.04 0.04 0.03 0.03 0.05 0.09 0.11 0.11 0.11 0.14 0.21 0.22 0.13 0.10 0.10 0.09 0.09 0.10 0.11 0.14 0.16 0.15 0.13 0.13 0.14 0.14 0.14 0.15 0.20 0.23 0.22 0.21 0.19 0.16 0.10 0.06 0.04 0.03 0.03 0.03 0.02
0.02 0.05 0.06 0.04 0.03 0.04 0.06 0.08 0.11 0.13 0.11 0.12 0.17 0.17 0.10 0.07 0.07 0.07 0.09 0.10 0.10 0.10 0.11 0.12 0.13 0.12 0.13 0.14 0.15 0.15 0.16 0.17 0.17 0.17 0.18 0.15 0.09 0.06 0.04 0.03 0.03 0.02 0.01
0.03 0.07 0.08 0.04 0.04 0.05 0.07 0.10 0.09 0.08 0.09 0.09 0.09 0.09 0.08 0.05 0.04 0.05 0.06 0.08 0.09 0.10 0.09 0.09 0.10 0.10 0.12 0.14 0.16 0.15 0.14 0.15 0.14 0.14 0.13 0.11 0.10 0.07 0.04 0.03 0.03 0.02 0.01
0.04 0.07 0.07 0.05 0.05 0.05 0.06 0.08 0.08 0.06 0.07 0.06 0.06 0.07 0.07 0.03 0.02 0.03 0.06 0.07 0.07 0.10 0.10 0.09 0.11 0.11 0.12 0.14 0.14 0.15 0.15 0.14 0.13 0.11 0.10 0.10 0.08 0.08 0.06 0.04 0.04 0.03 0.03
0.03 0.05 0.05 0.05 0.05 0.05 0.07 0.07 0.06 0.06 0.06 0.05 0.05 0.05 0.05 0.05 0.03 0.05 0.06 0.06 0.05 0.09 0.09 0.08 0.10 0.11 0.11 0.11 0.10 0.13 0.15 0.14 0.12 0.12 0.10 0.08 0.07 0.07 0.06 0.05 0.06 0.05 0.05
0.01 0.02 0.03 0.05 0.04 0.05 0.06 0.07 0.10 0.08 0.08 0.06 0.06 0.04 0.05 0.06 0.05 0.06 0.07 0.07 0.05 0.07 0.08 0.06 0.07 0.09 0.09 0.08 0.10 0.13 0.15 0.13 0.12 0.12 0.11 0.09 0.06 0.05 0.05 0.05 0.06 0.07 0.06
0.01 0.01 0.01 0.02 0.03 0.03 0.05 0.07 0.10 0.09 0.08 0.06 0.07 0.06 0.03 0.04 0.05 0.06 0.08 0.08 0.06 0.08 0.08 0.07 0.08 0.09 0.09 0.08 0.09 0.14 0.16 0.16 0.12 0.09 0.10 0.08 0.07 0.07 0.06 0.05 0.06 0.08 0.06
0.01 0.00 0.00 0.01 0.01 0.02 0.05 0.06 0.08 0.09 0.09 0.08 0.07 0.06 0.04 0.02 0.04 0.06 0.06 0.07 0.07 0.08 0.09 0.09 0.08 0.09 0.11 0.09 0.07 0.11 0.14 0.15 0.13 0.11 0.09 0.09 0.08 0.08 0.07 0.06 0.06 0.07 0.07
0.01 0.00 0.00 0.01 0.01 0.02 0.04 0.06 0.08 0.10 0.11 0.10 0.07 0.04 0.04 0.03 0.03 0.04 0.05 0.07 0.09 0.08 0.09 0.08 0.08 0.10 0.11 0.10 0.08 0.07 0.06 0.09 0.11 0.11 0.08 0.06 0.05 0.04 0.05 0.05 0.05 0.06 0.06
0.01 0.01 0.01 0.01 0.01 0.02 0.03 0.04 0.07 0.07 0.08 0.07 0.06 0.05 0.04 0.03 0.02 0.02 0.03 0.06 0.09 0.08 0.08 0.08 0.10 0.10 0.09 0.10 0.10 0.08 0.07 0.10 0.10 0.13 0.12 0.09 0.06 0.05 0.04 0.04 0.05 0.06 0.06
0.01 0.01 0.00 0.01 0.02 0.02 0.02 0.03 0.04 0.05 0.06 0.07 0.08 0.08 0.06 0.05 0.03 0.03 0.04 0.04 0.05 0.06 0.07 0.08 0.09 0.08 0.09 0.10 0.09 0.08 0.08 0.09 0.12 0.14 0.14 0.12 0.11 0.08 0.06 0.05 0.08 0.10 0.11
MSLP
1009.43 1009.14 1009.07 1009.24 1009.61 1010.06 1010.47 1010.74 1010.79 1010.63 1010.31 1009.92 1009.57 1009.33 1009.25 1009.32 1009.50 1009.73 1009.96 1010.13 1010.27 1010.39 1010.54 1010.75 1011.04 1011.42 1011.84 1012.27 1012.66 1012.98 1013.22 1013.38 1013.50 1013.61 1013.73 1013.88 1014.06 1014.25 1014.46 1014.67 1014.87 1015.08 1015.29
1009.50 1009.30 1009.31 1009.56 1009.98 1010.46 1010.88 1011.15 1011.20 1011.05 1010.74 1010.39 1010.08 1009.89 1009.85 1009.96 1010.15 1010.38 1010.58 1010.74 1010.86 1010.96 1011.10 1011.31 1011.60 1011.95 1012.34 1012.71 1013.02 1013.25 1013.41 1013.51 1013.59 1013.69 1013.83 1014.03 1014.28 1014.55 1014.82 1015.07 1015.29 1015.49 1015.68
1009.51 1009.41 1009.51 1009.81 1010.25 1010.73 1011.15 1011.41 1011.47 1011.35 1011.11 1010.83 1010.61 1010.50 1010.52 1010.65 1010.85 1011.05 1011.22 1011.34 1011.42 1011.51 1011.65 1011.85 1012.13 1012.46 1012.80 1013.10 1013.32 1013.46 1013.53 1013.57 1013.62 1013.73 1013.92 1014.18 1014.51 1014.85 1015.18 1015.47 1015.70 1015.89 1016.05
1009.49 1009.48 1009.65 1009.98 1010.43 1010.90 1011.30 1011.55 1011.64 1011.58 1011.42 1011.25 1011.14 1011.12 1011.21 1011.37 1011.56 1011.72 1011.85 1011.92 1011.97 1012.05 1012.17 1012.38 1012.65 1012.95 1013.23 1013.45 1013.58 1013.62 1013.61 1013.59 1013.62 1013.74 1013.98 1014.32 1014.72 1015.13 1015.51 1015.82 1016.06 1016.23 1016.36
1009.47 1009.55 1009.77 1010.13 1010.56 1011.01 1011.38 1011.63 1011.75 1011.75 1011.69 1011.64 1011.64 1011.72 1011.87 1012.05 1012.23 1012.36 1012.44 1012.47 1012.49 1012.56 1012.69 1012.89 1013.15 1013.42 1013.64 1013.78 1013.81 1013.75 1013.66 1013.59 1013.60 1013.75 1014.04 1014.44 1014.90 1015.37 1015.77 1016.09 1016.32 1016.47 1016.58
1009.50 1009.65 1009.91 1010.27 1010.70 1011.12 1011.47 1011.71 1011.85 1011.92 1011.95 1012.00 1012.10 1012.26 1012.46 1012.66 1012.82 1012.92 1012.95 1012.96 1012.97 1013.03 1013.17 1013.38 1013.63 1013.86 1014.03 1014.08 1014.02 1013.87 1013.70 1013.59 1013.59 1013.75 1014.08 1014.53 1015.04 1015.53 1015.95 1016.27 1016.48 1016.60 1016.69
1009.62 1009.81 1010.10 1010.47 1010.88 1011.27 1011.60 1011.83 1011.99 1012.10 1012.19 1012.32 1012.49 1012.71 1012.94 1013.14 1013.28 1013.36 1013.37 1013.36 1013.37 1013.45 1013.60 1013.82 1014.06 1014.26 1014.37 1014.35 1014.21 1013.99 1013.76 1013.60 1013.59 1013.76 1014.11 1014.59 1015.13 1015.63 1016.06 1016.36 1016.54 1016.63 1016.70
1009.83 1010.05 1010.36 1010.73 1011.13 1011.49 1011.79 1012.01 1012.17 1012.29 1012.41 1012.58 1012.79 1013.03 1013.27 1013.47 1013.60 1013.66 1013.67 1013.66 1013.69 1013.78 1013.95 1014.18 1014.41 1014.59 1014.65 1014.57 1014.37 1014.09 1013.81 1013.62 1013.60 1013.78 1014.15 1014.64 1015.18 1015.68 1016.09 1016.37 1016.53 1016.60 1016.66
1010.11 1010.34 1010.66 1011.03 1011.42 1011.76 1012.04 1012.24 1012.37 1012.48 1012.60 1012.76 1012.97 1013.21 1013.44 1013.63 1013.76 1013.82 1013.84 1013.85 1013.90 1014.01 1014.20 1014.43 1014.66 1014.81 1014.83 1014.71 1014.46 1014.15 1013.85 1013.65 1013.62 1013.80 1014.17 1014.66 1015.20 1015.69 1016.08 1016.34 1016.48 1016.54 1016.58
1010.40 1010.63 1010.96 1011.34 1011.72 1012.05 1012.29 1012.46 1012.55 1012.63 1012.71 1012.85 1013.03 1013.25 1013.47 1013.66 1013.79 1013.86 1013.89 1013.93 1014.00 1014.13 1014.33 1014.55 1014.76 1014.89 1014.89 1014.74 1014.48 1014.15 1013.85 1013.65 1013.63 1013.81 1014.17 1014.65 1015.17 1015.65 1016.03 1016.28 1016.42 1016.47 1016.51
1010.66 1010.89 1011.23 1011.61 1011.98 1012.29 1012.51 1012.63 1012.69 1012.71 1012.75 1012.83 1012.98 1013.17 1013.37 1013.56 1013.70 1013.79 1013.85 1013.91 1014.00 1014.13 1014.32 1014.53 1014.71 1014.82 1014.80 1014.65 1014.39 1014.08 1013.79 1013.61 1013.59 1013.77 1014.11 1014.58 1015.08 1015.55 1015.92 1016.18 1016.32 1016.39 1016.45
1010.85 1011.09 1011.42 1011.81 1012.17 1012.47 1012.66 1012.74 1012.75 1012.72 1012.70 1012.73 1012.84 1013.00 1013.19 1013.38 1013.54 1013.66 1013.74 1013.82 1013.91 1014.03 1014.20 1014.37 1014.52 1014.60 1014.57 1014.43 1014.19 1013.91 1013.65 1013.49 1013.48 1013.64 1013.97 1014.40 1014.88 1015.34 1015.72 1015.99 1016.17 1016.27 1016.34
1010.98 1011.22 1011.56 1011.93 1012.29 1012.57 1012.73 1012.78 1012.74 1012.66 1012.59 1012.58 1012.65 1012.79 1012.97 1013.17 1013.35 1013.49 1013.59 1013.67 1013.75 1013.86 1013.98 1014.11 1014.22 1014.27 1014.23 1014.11 1013.90 1013.65 1013.43 1013.28 1013.27 1013.41 1013.69 1014.08 1014.53 1014.97 1015.36 1015.67 1015.89 1016.04 1016.16
1011.08 1011.32 1011.64 1012.01 1012.35 1012.60 1012.74 1012.76 1012.69 1012.58 1012.47 1012.43 1012.46 1012.58 1012.76 1012.96 1013.15 1013.31 1013.42 1013.50 1013.56 1013.63 1013.70 1013.78 1013.85 1013.88 1013.84 1013.73 1013.56 1013.35 1013.15 1013.01 1012.97 1013.06 1013.28 1013.61 1014.01 1014.42 1014.82 1015.17 1015.44 1015.66 1015.83
1011.18 1011.41 1011.73 1012.07 1012.38 1012.61 1012.73 1012.73 1012.64 1012.51 1012.38 1012.31 1012.32 1012.42 1012.58 1012.78 1012.97 1013.14 1013.25 1013.32 1013.35 1013.38 1013.41 1013.44 1013.48 1013.48 1013.45 1013.36 1013.21 1013.03 1012.84 1012.68 1012.59 1012.61 1012.75 1012.99 1013.31 1013.69 1014.09 1014.46 1014.80 1015.09 1015.33
1011.32 1011.55 1011.83 1012.15 1012.43 1012.64 1012.74 1012.74 1012.64 1012.50 1012.36 1012.27 1012.25 1012.32 1012.46 1012.64 1012.82 1012.97 1013.07 1013.13 1013.15 1013.15 1013.14 1013.15 1013.15 1013.15 1013.12 1013.05 1012.92 1012.75 1012.54 1012.35 1012.19 1012.11 1012.13 1012.26 1012.50 1012.81 1013.19 1013.59 1013.98 1014.33 1014.64
1011.50 1011.71 1011.98 1012.25 1012.51 1012.70 1012.79 1012.79 1012.70 1012.57 1012.42 1012.31 1012.27 1012.30 1012.40 1012.53 1012.68 1012.81 1012.90 1012.94 1012.95 1012.94 1012.93 1012.92 1012.93 1012.93 1012.91 1012.84 1012.73 1012.55 1012.32 1012.06 1011.82 1011.62 1011.52 1011.52 1011.64 1011.88 1012.21 1012.61 1013.03 1013.44 1013.82
1011.69 1011.90 1012.13 1012.38 1012.60 1012.77 1012.87 1012.89 1012.82 1012.70 1012.56 1012.43 1012.35 1012.33 1012.37 1012.45 1012.55 1012.65 1012.72 1012.76 1012.78 1012.78 1012.79 1012.79 1012.81 1012.83 1012.82 1012.77 1012.65 1012.45 1012.19 1011.87 1011.53 1011.22 1010.98 1010.85 1010.86 1011.00 1011.27 1011.64 1012.06 1012.50 1012.91
1011.84 1012.05 1012.26 1012.48 1012.68 1012.85 1012.96 1013.00 1012.97 1012.88 1012.74 1012.60 1012.48 1012.41 1012.37 1012.39 1012.43 1012.49 1012.55 1012.60 1012.64 1012.68 1012.71 1012.76 1012.81 1012.85 1012.85 1012.81 1012.69 1012.47 1012.17 1011.79 1011.37 1010.96 1010.60 1010.35 1010.24 1010.28 1010.46 1010.78 1011.17 1011.60 1012.02
1011.89 1012.11 1012.31 1012.51 1012.71 1012.88 1013.02 1013.10 1013.11 1013.06 1012.94 1012.80 1012.64 1012.50 1012.40 1012.34 1012.33 1012.35 1012.40 1012.47 1012.54 1012.63 1012.71 1012.80 1012.89 1012.95 1012.98 1012.93 1012.81 1012.58 1012.25 1011.83 1011.36 1010.87 1010.43 1010.08 1009.86 1009.80 1009.88 1010.11 1010.43 1010.81 1011.20
1011.79 1012.03 1012.25 1012.45 1012.65 1012.84 1013.02 1013.15 1013.22 1013.21 1013.13 1012.99 1012.81 1012.63 1012.46 1012.34 1012.27 1012.26 1012.31 1012.39 1012.50 1012.64 1012.77 1012.91 1013.03 1013.11 1013.14 1013.10 1012.97 1012.74 1012.40 1011.97 1011.48 1010.96 1010.47 1010.05 1009.75 1009.59 1009.56 1009.67 1009.89 1010.17 1010.47
1011.51 1011.81 1012.05 1012.27 1012.49 1012.72 1012.94 1013.13 1013.27 1013.33 1013.29 1013.17 1012.99 1012.78 1012.57 1012.40 1012.29 1012.26 1012.29 1012.40 1012.54 1012.71 1012.89 1013.05 1013.19 1013.28 1013.31 1013.26 1013.13 1012.90 1012.57 1012.16 1011.69 1011.19 1010.70 1010.25 1009.89 1009.63 1009.49 1009.46 1009.53 1009.67 1009.84
1011.09 1011.46 1011.75 1012.01 1012.26 1012.53 1012.81 1013.07 1013.27 1013.40 1013.43 1013.36 1013.20 1012.99 1012.76 1012.56 1012.43 1012.37 1012.40 1012.51 1012.67 1012.85 1013.05 1013.22 1013.35 1013.42 1013.43 1013.37 1013.24 1013.03 1012.74 1012.38 1011.96 1011.51 1011.05 1010.60 1010.20 1009.86 1009.60 1009.42 1009.31 1009.27 1009.28
1010.60 1011.05 1011.41 1011.72 1012.02 1012.33 1012.65 1012.97 1013.25 1013.46 1013.56 1013.55 1013.44 1013.25 1013.03 1012.83 1012.68 1012.61 1012.63 1012.73 1012.88 1013.06 1013.24 1013.38 1013.48 1013.53 1013.50 1013.42 1013.29 1013.10 1012.86 1012.57 1012.23 1011.85 1011.45 1011.03 1010.61 1010.19 1009.81 1009.47 1009.17 1008.93 1008.76
1010.14 1010.68 1011.11 1011.47 1011.81 1012.16 1012.53 1012.90 1013.24 1013.52 1013.70 1013.76 1013.71 1013.57 1013.38 1013.20 1013.05 1012.97 1012.97 1013.04 1013.17 1013.32 1013.45 1013.55 1013.60 1013.59 1013.53 1013.42 1013.28 1013.11 1012.92 1012.71 1012.46 1012.17 1011.83 1011.45 1011.01 1010.54 1010.04 1009.54 1009.05 1008.61 1008.24
1009.79 1010.43 1010.93 1011.34 1011.71 1012.08 1012.47 1012.87 1013.26 1013.60 1013.85 1013.98 1014.00 1013.92 1013.78 1013.62 1013.48 1013.39 1013.38 1013.42 1013.51 1013.61 1013.69 1013.72 1013.71 1013.64 1013.53 1013.39 1013.24 1013.09 1012.95 1012.80 1012.64 1012.43 1012.16 1011.81 1011.37 1010.84 1010.24 1009.60 1008.94 1008.31 1007.75
Thickness
5796 5795 5792 5792 5791 5790 5788 5788 5788 5788 5788 5786 5785 5784 5783 5783 5783 5783 5782 5782 5782 5781 5779 5778 5778 5776 5775 5773 5773 5772 5771 5770 5769 5767 5766 5764 5762 5761 5760 5759 5758 5756 5755
5799 5795 5791 5789 5788 5787 5786 5786 5785 5786 5785 5784 5783 5782 5781 5781 5781 5782 5782 5782 5781 5781 5779 5778 5776 5776 5774 5773 5771 5770 5769 5768 5767 5766 5764 5762 5760 5759 5758 5758 5757 5755 5753
5799 5794 5790 5788 5786 5785 5785 5784 5783 5783 5782 5781 5780 5780 5780 5780 5780 5781 5781 5781 5781 5780 5779 5777 5776 5775 5773 5771 5770 5769 5768 5767 5766 5765 5764 5762 5759 5757 5756 5756 5754 5753 5751
5799 5794 5790 5786 5785 5783 5783 5782 5781 5780 5780 5779 5778 5778 5778 5779 5780 5780 5780 5779 5780 5779 5777 5776 5775 5773 5772 5771 5770 5769 5767 5766 5765 5765 5764 5762 5759 5756 5755 5754 5752 5751 5749
5798 5793 5788 5785 5783 5782 5781 5780 5779 5778 5778 5778 5777 5777 5777 5778 5779 5779 5779 5778 5778 5777 5776 5775 5773 5772 5770 5770 5769 5768 5767 5766 5765 5765 5764 5761 5758 5755 5754 5752 5751 5749 5748
5797 5793 5787 5784 5782 5781 5779 5778 5777 5777 5776 5776 5776 5775 5776 5777 5777 5777 5777 5777 5776 5776 5774 5773 5772 5770 5769 5769 5768 5768 5767 5766 5765 5765 5763 5760 5757 5755 5753 5751 5750 5748 5747
5797 5793 5787 5783 5781 5779 5778 5777 5776 5776 5775 5776 5775 5774 5774 5774 5774 5774 5774 5775 5774 5774 5772 5771 5770 5769 5768 5768 5767 5767 5767 5766 5765 5765 5763 5760 5756 5754 5752 5750 5749 5747 5745
5798 5792 5786 5782 5780 5779 5778 5777 5776 5776 5776 5776 5775 5773 5772 5772 5772 5772 5772 5772 5772 5772 5770 5769 5768 5767 5767 5767 5767 5767 5767 5766 5766 5766 5762 5759 5756 5754 5752 5750 5748 5746 5745
5797 5791 5786 5782 5780 5778 5777 5776 5775 5775 5775 5775 5774 5772 5771 5771 5770 5770 5770 5770 5769 5769 5768 5768 5767 5766 5765 5766 5766 5767 5767 5766 5766 5765 5762 5758 5755 5753 5751 5749 5747 5745 5744
5795 5791 5787 5784 5780 5778 5777 5775 5774 5773 5773 5773 5772 5771 5770 5769 5769 5769 5768 5768 5767 5768 5767 5767 5766 5765 5765 5765 5766 5766 5766 5766 5766 5764 5761 5757 5754 5752 5750 5748 5746 5745 5743
5791 5789 5788 5784 5780 5779 5777 5774 5773 5772 5771 5771 5770 5770 5769 5769 5768 5768 5767 5766 5766 5766 5767 5767 5765 5764 5764 5764 5764 5764 5764 5765 5765 5763 5760 5757 5754 5752 5749 5747 5746 5744 5743
5786 5787 5787 5784 5781 5779 5777 5774 5773 5772 5770 5770 5770 5769 5768 5769 5768 5768 5766 5766 5765 5765 5766 5765 5764 5763 5763 5763 5763 5763 5763 5765 5764 5762 5759 5756 5753 5751 5748 5746 5745 5744 5743
5788 5788 5787 5784 5781 5779 5776 5774 5773 5773 5771 5770 5770 5769 5769 5768 5767 5767 5766 5764 5764 5763 5763 5763 5762 5762 5762 5763 5763 5763 5764 5764 5763 5761 5757 5755 5752 5749 5747 5746 5744 5743 5742
5790 5789 5787 5784 5780 5777 5776 5774 5772 5772 5771 5771 5771 5770 5769 5768 5768 5768 5766 5765 5764 5764 5764 5763 5763 5763 5763 5764 5764 5764 5765 5764 5762 5760 5756 5753 5751 5748 5747 5745 5744 5742 5742
5791 5789 5787 5784 5780 5778 5776 5774 5773 5773 5772 5772 5772 5771 5770 5769 5769 5768 5767 5766 5765 5765 5764 5763 5763 5763 5763 5763 5763 5764 5763 5762 5761 5758 5754 5752 5750 5748 5747 5745 5744 5742 5741
5792 5790 5788 5785 5781 5778 5776 5775 5774 5774 5773 5773 5772 5771 5770 5769 5769 5769 5768 5767 5767 5766 5765 5763 5763 5763 5763 5762 5762 5762 5762 5760 5759 5756 5753 5751 5749 5748 5747 5745 5744 5743 5741
5793 5791 5788 5786 5782 5779 5778 5776 5776 5776 5775 5774 5772 5771 5770 5769 5769 5769 5768 5767 5767 5766 5765 5764 5762 5762 5761 5761 5760 5760 5759 5758 5757 5756 5754 5751 5749 5747 5746 5745 5744 5743 5742
5795 5791 5790 5789 5784 5781 5779 5778 5777 5778 5776 5775 5773 5771 5770 5769 5769 5769 5768 5767 5767 5766 5765 5763 5762 5761 5760 5759 5758 5758 5758 5757 5756 5756 5754 5752 5750 5749 5747 5745 5744 5743 5742
5797 5792 5789 5788 5785 5782 5781 5779 5778 5777 5776 5775 5774 5772 5771 5770 5770 5769 5769 5767 5767 5765 5764 5763 5761 5759 5757 5757 5756 5756 5757 5756 5756 5756 5755 5753 5752 5750 5748 5745 5744 5742 5741
5799 5794 5790 5788 5786 5784 5782 5779 5778 5777 5777 5777 5775 5773 5772 5771 5771 5770 5769 5767 5767 5765 5763 5762 5759 5758 5757 5756 5756 5755 5755 5755 5755 5755 5755 5754 5753 5751 5749 5746 5744 5741 5740
5800 5795 5791 5788 5786 5784 5781 5778 5776 5774 5776 5776 5776 5774 5773 5772 5771 5770 5770 5768 5767 5765 5763 5762 5760 5757 5755 5756 5752 5748 5750 5754 5754 5754 5754 5753 5752 5751 5749 5747 5745 5743 5741
5801 5797 5793 5789 5787 5785 5783 5782 5780 5778 5777 5777 5777 5775 5774 5773 5772 5771 5769 5768 5767 5765 5763 5762 5760 5756 5755 5757 5751 5745 5740 5742 5748 5753 5751 5750 5750 5750 5749 5747 5746 5744 5742
5804 5800 5796 5792 5790 5788 5787 5784 5782 5779 5777 5776 5775 5774 5775 5774 5773 5771 5770 5769 5768 5766 5763 5762 5761 5757 5753 5755 5756 5749 5740 5736 5740 5746 5749 5750 5749 5749 5748 5748 5746 5744 5742
5809 5805 5801 5796 5793 5790 5789 5786 5781 5776 5773 5774 5775 5775 5775 5774 5773 5771 5770 5769 5767 5766 5764 5763 5762 5760 5756 5752 5754 5755 5753 5749 5740 5737 5743 5747 5748 5748 5748 5748 5746 5744 5742
5816 5810 5804 5798 5794 5793 5791 5788 5784 5780 5778 5778 5777 5776 5774 5774 5773 5772 5770 5769 5767 5766 5764 5763 5762 5760 5758 5754 5753 5753 5752 5750 5748 5740 5735 5739 5743 5746 5747 5746 5745 5743 5742
5820 5814 5808 5801 5796 5794 5792 5790 5786 5783 5781 5778 5776 5774 5773 5773 5773 5772 5771 5769 5767 5766 5764 5763 5762 5760 5758 5756 5754 5754 5751 5748 5745 5743 5738 5737 5738 5742 5746 5746 5744 5743 5741